カタログに戻る

FENGYUN 1C DEB

運用中LEO
NORAD 29954·DEBRIS·🇨🇳 China

打ち上げ May 10, 1999 から Taiyuan Satellite Launch Center

Loading…

次のパス (今後24時間)

TLE

最新Source: Space-Track

元期: Sep 14, 2026, 17:15 UTC

1 29954U 99025KC  26257.71936011  .00001747  00000-0  61018-3 0  9992
2 29954 100.1292 348.3558 0073826 210.9364 148.7457 14.35346571 21427

AllMySatでFENGYUN 1C DEBをリアルタイム追跡

Download on the App Store